1530370800.89,44272,18.63,73182.8,-0.77,-4.41,-4.33,0,*62
1530370802.09,44273,18.63,73196.0,-0.77,-4.33,-4.29,0,*6D
1530370803.29,44274,18.63,73208.8,-0.77,-3.91,-3.91,0,*61
1530370804.51,44275,18.63,73210.3,-0.77,-5.55,-5.77,0,*60
1530370805.75,44276,18.69,73206.5,-0.81,-7.61,-7.65,0,*6E
1530370806.98,44277,18.69,73192.5,-0.83,-6.39,-6.31,0,*61
1530370808.24,44278,18.63,73206.5,-0.89,-6.93,-6.93,0,*6C
1530370809.44,44279,18.63,73194.3,-0.91,-6.77,-6.59,0,*68
1530370810.71,44280,18.63,73200.8,-0.93,-5.65,-5.61,0,*64
1530370811.92,44281,18.69,73202.8,-0.93,-4.09,-4.25,0,*6F
1530370813.19,44282,18.63,73204.5,-0.93,-4.93,-5.23,0,*68
1530370814.38,44283,18.63,73176.3,-0.95,-6.81,-6.85,0,*61
1530370815.61,44284,18.63,73164.3,-0.95,-5.47,-5.23,0,*60
1530370816.8,44285,18.63,73200.0,-0.95,-4.05,-3.83,0,*6A
1530370818.04,44286,18.69,73218.8,-0.95,-3.59,-3.59,0,*60
1530370819.23,44287,18.63,73224.0,-0.95,-4.09,-4.09,0,*61
1530370820.45,44288,18.63,73212.0,-0.93,-3.83,-3.79,0,*6D
1530370821.68,44289,18.69,73224.3,-0.93,-4.25,-4.21,0,*6D
1530370822.87,44290,18.69,73224.5,-0.95,-4.25,-4.25,0,*67
1530370824.09,44291,18.63,73246.3,-0.93,-3.83,-3.95,0,*67
1530370825.31,44292,18.69,73236.0,-0.93,-4.49,-4.57,0,*6C
1530370826.53,44293,18.63,73228.8,-0.93,-3.95,-3.83,0,*65
1530370827.72,44294,18.63,73242.3,-0.95,-3.27,-3.19,0,*6E
1530370828.93,44295,18.63,73228.5,-0.91,-5.47,-5.77,0,*65
1530370830.13,44296,18.63,73192.0,-0.95,-7.19,-7.19,0,*61
1530370831.35,44297,18.69,73192.8,-0.99,-7.69,-7.87,0,*6C
1530370832.59,44298,18.69,73190.8,-1.03,-7.31,-7.35,0,*55
1530370833.81,44299,18.63,73134.5,-1.03,-5.11,-4.99,0,*51
1530370835.03,44300,18.63,73170.3,-1.05,-4.05,-3.95,0,*59
1530370836.25,44301,18.63,73184.5,-1.05,-3.19,-3.39,0,*54
1530370837.48,44302,18.63,73182.0,-1.01,-3.23,-3.67,0,*51
1530370838.69,44303,18.63,73176.3,-0.99,-3.91,-4.29,0,*64
1530370839.93,44304,18.63,73190.0,-0.97,-4.29,-5.19,0,*6B
1530370841.15,44305,18.63,73196.5,-0.95,-5.23,-5.47,0,*68
1530370842.37,44306,18.63,73202.8,-0.93,-5.51,-6.05,0,*6D
1530370843.6,44307,18.63,73178.3,-0.91,-5.11,-4.77,0,*6D
1530370844.84,44308,18.63,73194.8,-0.85,-4.89,-4.41,0,*62
1530370846.05,44309,18.63,73182.8,-0.83,-4.49,-4.45,0,*6D
1530370847.3,44310,18.69,73192.8,-0.83,-6.19,-5.51,0,*66
1530370848.54,44311,18.63,73196.3,-0.83,-6.27,-5.47,0,*6D
1530370849.79,44312,18.69,73202.8,-0.83,-5.69,-5.35,0,*62
1530370851.01,44313,18.63,73210.8,-0.83,-5.51,-5.39,0,*64
1530370852.25,44314,18.63,73194.0,-0.79,-4.69,-4.21,0,*64
1530370853.51,44315,18.63,73198.8,-0.79,-4.81,-4.69,0,*6F
1530370854.72,44316,18.63,73198.8,-0.81,-4.05,-3.67,0,*6E
1530370855.95,44317,18.63,73182.8,-0.79,-4.29,-4.21,0,*63
1530370857.14,44318,18.63,73206.0,-0.77,-4.09,-4.21,0,*60
1530370858.35,44319,18.63,73200.3,-0.81,-4.21,-4.21,0,*62
1530370859.55,44320,18.63,73218.0,-0.81,-3.91,-3.95,0,*6C
1530370860.82,44321,18.63,73198.5,-0.83,-5.65,-5.81,0,*61
1530370862.09,44322,18.69,73210.0,-0.85,-5.85,-5.69,0,*6C
1530370863.32,44323,18.63,73208.8,-0.89,-5.31,-5.35,0,*67
1530370864.56,44324,18.63,73206.5,-0.89,-5.69,-5.47,0,*68
1530370865.78,44325,18.63,73208.3,-0.93,-4.57,-4.61,0,*6B
1530370866.99,44326,18.63,73202.8,-0.93,-4.49,-4.49,0,*6D
1530370868.25,44327,18.63,73210.3,-0.93,-4.69,-4.73,0,*67
1530370869.44,44328,18.69,73218.8,-0.91,-4.57,-4.45,0,*62
1530370870.65,44329,18.63,73222.3,-0.93,-4.25,-4.09,0,*6C
1530370871.87,44330,18.63,73218.3,-0.93,-4.25,-3.95,0,*66
1530370873.09,44331,18.63,73216.0,-0.95,-3.83,-3.59,0,*6A
1530370874.33,44332,18.63,73216.8,-0.91,-3.67,-3.51,0,*6F
1530370875.58,44333,18.63,73220.3,-0.93,-3.55,-3.47,0,*6A
1530370876.78,44334,18.63,73194.5,-0.91,-4.33,-4.33,0,*6C
1530370877.97,44335,18.63,73184.5,-0.91,-4.53,-4.57,0,*69
1530370879.19,44336,18.63,73188.0,-0.93,-4.33,-4.33,0,*6C
1530370880.44,44337,18.63,73190.8,-0.93,-3.67,-3.71,0,*6A
1530370881.68,44338,18.63,73182.5,-0.95,-3.59,-3.59,0,*64
1530370882.94,44339,18.63,73168.5,-0.93,-3.47,-3.47,0,*63
1530370884.16,44340,18.63,73216.3,-0.93,-3.15,-3.07,0,*6E
1530370885.35,44341,18.63,73224.5,-0.95,-3.03,-3.15,0,*6D
1530370886.56,44342,18.69,73220.3,-0.93,-3.19,-3.15,0,*63
1530370887.77,44343,18.63,73208.5,-0.89,-3.03,-2.99,0,*67
1530370889.04,44344,18.63,73216.8,-0.89,-2.63,-2.55,0,*67
1530370890.3,44345,18.63,73224.3,-0.89,-2.03,-2.11,0,*60
1530370891.49,44346,18.63,73232.0,-0.81,-2.43,-2.79,0,*61
1530370892.7,44347,18.63,73222.0,-0.79,-3.39,-3.19,0,*6C
1530370893.92,44348,18.69,73226.5,-0.79,-2.99,-2.43,0,*66
1530370895.14,44349,18.63,73220.8,-0.79,-3.27,-3.03,0,*66
1530370896.38,44350,18.63,73204.8,-0.77,-3.63,-3.43,0,*64
1530370897.56,44351,18.63,73206.5,-0.77,-2.91,-2.87,0,*60
1530370898.83,44352,18.63,73210.0,-0.75,-2.71,-2.59,0,*6C
1530370900.07,44353,18.63,73212.3,-0.77,-2.67,-2.75,0,*66
1530370901.28,44354,18.63,73200.8,-0.75,-3.39,-3.15,0,*6E
1530370902.5,44355,18.63,73218.3,-0.75,-3.07,-2.95,0,*6B
1530370903.69,44356,18.63,73212.3,-0.73,-3.15,-2.99,0,*61
1530370904.9,44357,18.63,73208.8,-0.71,-3.07,-2.91,0,*69
1530370906.09,44358,18.69,73212.0,-0.73,-3.07,-2.83,0,*67
1530370907.29,44359,18.63,73212.3,-0.71,-2.79,-2.91,0,*6F
1530370908.53,44360,18.63,73214.8,-0.71,-3.47,-3.19,0,*68
1530370909.75,44361,18.63,73214.0,-0.69,-3.47,-3.07,0,*6F
1530370910.94,44362,18.63,73210.3,-0.69,-3.79,-3.35,0,*60
1530370912.16,44363,18.63,73200.3,-0.67,-3.79,-3.31,0,*6B
1530370913.4,44364,18.63,73202.0,-0.67,-3.51,-3.19,0,*6C
1530370914.61,44365,18.63,73172.8,-0.67,-2.99,-2.79,0,*6F
1530370915.86,44366,18.63,73170.8,-0.63,-2.83,-2.75,0,*6F
1530370917.07,44367,18.63,73186.3,-0.63,-3.11,-3.03,0,*64
1530370918.3,44368,18.63,73172.8,-0.63,-2.95,-2.95,0,*68
1530370919.51,44369,18.63,73184.0,-0.63,-3.03,-2.99,0,*6B
1530370920.76,44370,18.63,73190.8,-0.61,-2.59,-2.51,0,*6B
1530370921.98,44371,18.63,73184.8,-0.61,-2.11,-2.19,0,*6A
1530370923.16,44372,18.63,73250.3,-0.61,-2.19,-2.27,0,*6C
1530370924.37,44373,18.63,73228.0,-0.59,-3.11,-3.19,0,*63
1530370925.59,44374,18.63,73214.3,-0.59,-3.07,-3.07,0,*6C
1530370926.81,44375,18.63,73192.5,-0.59,-3.19,-3.07,0,*62
1530370928.02,44376,18.63,73194.3,-0.59,-2.83,-2.79,0,*6B
1530370929.24,44377,18.63,73202.0,-0.59,-3.35,-3.35,0,*6F
1530370930.46,44378,18.63,73198.5,-0.59,-3.31,-3.23,0,*63
1530370931.67,44379,18.63,73180.5,-0.59,-3.11,-3.07,0,*66
1530370932.86,44380,18.63,73200.3,-0.57,-2.43,-2.31,0,*6C
1530370934.1,44381,18.63,73208.5,-0.57,-2.67,-2.71,0,*6F
1530370935.3,44382,18.63,73218.0,-0.57,-2.95,-3.07,0,*61
1530370936.54,44383,18.63,73218.5,-0.57,-3.47,-3.59,0,*65
1530370937.8,44384,18.63,73218.0,-0.59,-3.59,-3.55,0,*6F
1530370939.02,44385,18.63,73194.8,-0.59,-4.45,-4.21,0,*60
1530370940.23,44386,18.63,73190.0,-0.57,-2.91,-2.71,0,*61
1530370941.51,44387,18.63,73180.5,-0.59,-2.71,-2.71,0,*60
1530370942.74,44388,18.63,73184.0,-0.57,-2.59,-2.55,0,*6D
1530370943.96,44389,18.63,73172.3,-0.57,-2.47,-2.43,0,*64
1530370945.15,44390,18.63,73188.8,-0.53,-2.39,-2.31,0,*64
1530370946.33,44391,18.63,73192.5,-0.53,-2.27,-2.27,0,*6D
1530370947.55,44392,18.63,73192.0,-0.53,-2.11,-2.15,0,*6A
1530370948.82,44393,18.63,73198.0,-0.51,-1.99,-1.99,0,*6D
1530370950.06,44394,18.63,73202.8,-0.51,-1.95,-1.75,0,*64
1530370951.3,44395,18.63,73210.0,-0.49,-2.07,-1.95,0,*6A
1530370952.55,44396,18.63,73198.3,-0.49,-2.63,-2.59,0,*68
1530370953.74,44397,18.63,73200.0,-0.49,-3.23,-2.99,0,*60
1530370954.98,44398,18.63,73200.8,-0.45,-2.59,-2.59,0,*63
1530370956.22,44399,18.63,73184.3,-0.45,-2.11,-2.03,0,*61
1530370957.44,44400,18.63,73180.0,-0.45,-1.91,-1.79,0,*63
1530370958.68,44401,18.63,73192.5,-0.43,-1.43,-1.33,0,*65
1530370959.9,44402,18.63,73184.5,-0.39,-1.17,-1.29,0,*61
1530370961.09,44403,18.63,73182.0,-0.37,-1.25,-1.29,0,*6F
1530370962.32,44404,18.63,73190.8,-0.35,-1.13,-1.25,0,*63
1530370963.57,44405,18.63,73198.8,-0.31,-1.05,-1.79,0,*68
1530370964.79,44406,18.63,73190.8,-0.29,-2.59,-3.79,0,*6A
1530370966.04,44407,18.63,73196.0,-0.27,-2.63,-3.63,0,*67
1530370967.26,44408,18.63,73182.8,-0.25,-3.47,-3.35,0,*6E
1530370968.48,44409,18.63,73186.8,-0.23,-2.99,-4.13,0,*68
1530370969.72,44410,18.63,73184.8,-0.17,-5.89,-8.59,0,*63
1530370970.97,44411,18.63,73182.0,-0.17,-6.13,-6.97,0,*6E
1530370972.19,44412,18.63,73168.0,-0.15,-4.29,-4.89,0,*69
1530370973.43,44413,18.63,73172.0,-0.13,-4.65,-4.89,0,*66
1530370974.65,44414,18.63,73192.0,-0.11,-3.23,-5.19,0,*6E
1530370975.83,44415,18.63,73190.3,-0.07,-4.33,-6.73,0,*51
1530370977.07,44416,18.63,73194.3,-0.05,-7.43,-10.05,0,*62
1530370978.35,44417,18.63,73192.8,-0.01,-11.07,-13.61,0,*51
1530370979.62,44418,18.63,73190.8,-0.01,-13.29,-16.23,0,*53
1530370980.86,44419,18.63,73196.0,-0.03,-13.97,-17.79,0,*5B
1530370982.06,44420,18.63,73190.5,-0.03,-17.87,-19.47,0,*57
1530370983.31,44421,18.63,73204.3,-0.05,-16.41,-17.11,0,*56
1530370984.55,44422,18.63,73206.8,-0.07,-18.55,-17.55,0,*5C
1530370985.8,44423,18.63,73208.5,-0.11,-17.59,-16.69,0,*67
1530370987.01,44424,18.63,73214.3,-0.11,-15.07,-15.29,0,*6E
1530370988.2,44425,18.63,73214.8,-0.11,-15.63,-14.29,0,*6C
1530370989.47,44426,18.63,73196.5,-0.15,-13.97,-11.63,0,*6D
1530370990.68,44427,18.63,73190.5,-0.21,-9.23,-7.99,0,*6D
1530370991.92,44428,18.63,73204.3,-0.21,-5.65,-4.85,0,*62
1530370993.15,44429,18.63,73204.3,-0.21,-4.85,-4.69,0,*6E
1530370994.37,44430,18.63,73188.8,-0.23,-4.29,-4.21,0,*6E
1530370995.57,44431,18.63,73180.3,-0.25,-3.83,-3.75,0,*68
1530370996.83,44432,18.63,73250.5,-0.27,-3.63,-3.63,0,*60
1530370998.05,44433,18.63,73238.5,-0.27,-3.87,-4.05,0,*6C
1530370999.24,44434,18.63,73210.0,-0.29,-4.05,-4.13,0,*6F
1530371000.43,44435,18.63,73208.3,-0.29,-3.87,-3.87,0,*69
1530371001.62,44436,18.63,73206.5,-0.29,-4.17,-4.17,0,*6A
1530371002.86,44437,18.63,73202.0,-0.31,-3.67,-3.79,0,*6D
1530371004.08,44438,18.63,73198.8,-0.33,-3.71,-3.75,0,*6B
1530371005.32,44439,18.63,73194.5,-0.33,-3.55,-3.59,0,*62
1530371006.57,44440,18.63,73188.5,-0.33,-3.59,-3.59,0,*60
1530371007.78,44441,18.63,73198.0,-0.31,-3.19,-3.19,0,*63
1530371008.97,44442,18.63,73196.3,-0.33,-3.19,-3.19,0,*62
1530371010.16,44443,18.63,73192.0,-0.33,-3.07,-3.11,0,*64
1530371011.38,44444,18.63,73188.5,-0.35,-3.11,-2.99,0,*63
1530371012.56,44445,18.63,73190.0,-0.33,-3.23,-3.19,0,*6C
1530371013.75,44446,18.63,73180.3,-0.33,-3.19,-3.07,0,*69
1530371014.95,44447,18.63,73178.8,-0.33,-3.07,-3.07,0,*67
1530371016.14,44448,18.63,73182.3,-0.33,-2.99,-3.07,0,*6E
1530371017.34,44449,18.63,73208.3,-0.33,-2.95,-2.83,0,*6E
1530371018.55,44450,18.63,73186.5,-0.31,-3.15,-3.15,0,*63
1530371019.79,44451,18.63,73206.3,-0.33,-3.43,-3.47,0,*64
1530371020.99,44452,18.63,73180.5,-0.35,-3.19,-3.23,0,*6C
1530371022.21,44453,18.63,73168.3,-0.35,-2.87,-2.87,0,*64
1530371023.46,44454,18.63,73210.8,-0.33,-2.71,-2.67,0,*62
1530371024.69,44455,18.63,73198.3,-0.31,-2.67,-2.79,0,*69
1530371025.88,44456,18.63,73198.8,-0.33,-2.99,-3.11,0,*66
1530371027.1,44457,18.63,73194.5,-0.33,-3.59,-3.87,0,*65
1530371028.32,44458,18.63,73196.3,-0.33,-5.31,-5.39,0,*61
1530371029.57,44459,18.63,73210.5,-0.31,-6.19,-7.87,0,*6C
1530371030.81,44460,18.63,73172.3,-0.31,-7.57,-6.77,0,*63
1530371032.03,44461,18.63,73190.8,-0.33,-7.15,-7.39,0,*6D
1530371033.27,44462,18.63,73184.5,-0.33,-7.91,-7.01,0,*69
1530371034.49,44463,18.63,73194.0,-0.31,-6.85,-6.43,0,*69
1530371035.73,44464,18.63,73196.3,-0.31,-6.81,-5.77,0,*6E
1530371036.95,44465,18.63,73208.8,-0.33,-6.97,-5.39,0,*60
1530371038.18,44466,18.63,73202.3,-0.33,-5.65,-4.37,0,*62
1530371039.39,44467,18.63,73218.0,-0.33,-4.77,-4.37,0,*61
1530371040.61,44468,18.63,73200.8,-0.33,-4.01,-3.75,0,*6E
1530371041.85,44469,18.63,73208.8,-0.35,-3.83,-3.63,0,*63
1530371043.12,44470,18.63,73202.5,-0.35,-3.71,-3.59,0,*6F
1530371044.36,44471,18.63,73206.0,-0.33,-3.63,-3.43,0,*60
1530371045.58,44472,18.63,73214.8,-0.35,-3.95,-3.87,0,*64
1530371046.83,44473,18.63,73216.3,-0.33,-4.01,-4.01,0,*60
1530371048.04,44474,18.63,73202.3,-0.35,-4.37,-3.87,0,*6D
1530371049.28,44475,18.63,73192.0,-0.37,-5.27,-4.77,0,*66
1530371050.5,44476,18.63,73198.5,-0.37,-4.01,-3.79,0,*69
1530371051.72,44477,18.63,73200.5,-0.37,-4.01,-4.05,0,*64
1530371052.94,44478,18.63,73178.8,-0.39,-4.53,-4.57,0,*65
1530371054.15,44479,18.63,73206.3,-0.43,-4.61,-4.61,0,*6D
1530371055.37,44480,18.63,73198.8,-0.43,-4.33,-4.41,0,*6E
1530371056.56,44481,18.63,73192.5,-0.45,-4.25,-4.25,0,*6C
1530371057.8,44482,18.63,73162.8,-0.45,-4.77,-4.77,0,*6F
1530371059.0,44483,18.63,73166.0,-0.47,-4.45,-4.53,0,*6B
1530371060.21,44484,18.63,73174.5,-0.51,-4.49,-4.49,0,*6C
1530371061.43,44485,18.63,73186.5,-0.51,-4.37,-4.37,0,*6D
1530371062.65,44486,18.63,73188.8,-0.51,-4.41,-4.49,0,*66
1530371063.87,44487,18.63,73192.5,-0.51,-3.75,-3.79,0,*63
1530371065.07,44488,18.63,73166.3,-0.53,-3.83,-3.83,0,*62
1530371066.27,44489,18.63,73176.0,-0.53,-3.83,-3.91,0,*60
1530371067.45,44490,18.63,73182.5,-0.53,-3.27,-3.19,0,*66
1530371068.67,44491,18.63,73182.8,-0.51,-3.87,-3.79,0,*69
1530371069.86,44492,18.63,73178.3,-0.53,-3.19,-3.15,0,*65
1530371071.07,44493,18.63,73166.0,-0.51,-2.83,-2.83,0,*6A
1530371072.28,44494,18.63,73170.8,-0.51,-3.35,-3.15,0,*6F
1530371073.55,44495,18.63,73180.5,-0.51,-2.75,-2.75,0,*6C
1530371074.8,44496,18.63,73188.3,-0.49,-2.59,-2.51,0,*6E
1530371076.03,44497,18.63,73188.5,-0.49,-2.11,-2.23,0,*66
1530371077.29,44498,18.63,73164.0,-0.47,-2.07,-2.03,0,*62
1530371078.53,44499,18.63,73190.0,-0.45,-1.91,-1.91,0,*65
1530371079.77,44500,18.63,73174.3,-0.43,-2.79,-2.67,0,*6D
1530371080.98,44501,18.63,73182.0,-0.39,-2.39,-2.35,0,*62
1530371082.19,44502,18.63,73202.0,-0.37,-2.27,-2.59,0,*6A
1530371083.41,44503,18.63,73194.8,-0.37,-2.75,-3.87,0,*6E
1530371084.66,44504,18.63,73230.8,-0.35,-3.83,-4.85,0,*66
1530371085.9,44505,18.63,73222.8,-0.33,-5.15,-7.27,0,*63
1530371087.15,44506,18.63,73220.5,-0.31,-8.51,-7.49,0,*67
1530371088.4,44507,18.63,73210.3,-0.33,-9.11,-8.07,0,*64
1530371089.62,44508,18.63,73206.0,-0.33,-7.15,-5.93,0,*61
1530371090.84,44509,18.63,73180.0,-0.37,-5.19,-4.57,0,*63
1530371092.06,44510,18.63,73190.3,-0.35,-4.99,-4.37,0,*66
1530371093.3,44511,18.63,73212.8,-0.35,-3.87,-3.59,0,*60
1530371094.52,44512,18.63,73210.8,-0.35,-3.87,-3.75,0,*6D
1530371095.72,44513,18.63,73178.5,-0.37,-3.91,-3.79,0,*65
1530371096.93,44514,18.63,73178.5,-0.37,-3.47,-3.39,0,*6D
1530371098.13,44515,18.63,73168.5,-0.37,-2.99,-2.99,0,*65
1530371099.37,44516,18.63,73206.0,-0.37,-2.71,-2.71,0,*66
1530371100.58,44517,18.63,73208.8,-0.35,-3.23,-3.19,0,*6C
1530371101.79,44518,18.63,73188.5,-0.37,-3.75,-3.63,0,*6F
1530371102.99,44519,18.63,73206.0,-0.37,-3.75,-3.75,0,*69
1530371104.19,44520,18.63,73196.5,-0.37,-3.87,-3.91,0,*64
1530371105.43,44521,18.63,73184.0,-0.35,-4.09,-4.01,0,*68
1530371106.7,44522,18.63,73156.0,-0.39,-4.01,-4.01,0,*6F
1530371107.91,44523,18.63,73180.3,-0.43,-4.29,-4.17,0,*6E
1530371109.13,44524,18.63,73174.5,-0.43,-4.33,-4.29,0,*6F
1530371110.37,44525,18.63,73194.0,-0.39,-4.05,-4.01,0,*6C
1530371111.61,44526,18.63,73166.5,-0.43,-3.55,-3.39,0,*6C
1530371112.85,44527,18.63,73180.5,-0.43,-3.63,-3.91,0,*6A
1530371114.07,44528,18.63,73190.8,-0.43,-3.31,-4.21,0,*6E
1530371115.29,44529,18.63,73150.8,-0.43,-4.05,-4.57,0,*6E
1530371116.56,44530,18.63,73172.3,-0.39,-3.67,-4.77,0,*6A
1530371117.79,44531,18.63,73170.5,-0.43,-4.05,-6.27,0,*62
1530371119.07,44532,18.63,73162.0,-0.39,-3.47,-5.03,0,*68
1530371120.31,44533,18.63,73158.8,-0.35,-3.63,-4.99,0,*61
1530371121.53,44534,18.63,73174.0,-0.37,-3.75,-4.77,0,*63
1530371122.76,44535,18.63,73194.5,-0.33,-4.37,-5.03,0,*65
1530371124.0,44536,18.63,73182.0,-0.33,-5.69,-7.27,0,*68
1530371125.22,44537,18.63,73200.0,-0.33,-5.51,-5.89,0,*64
1530371126.42,44538,18.63,73196.5,-0.33,-7.11,-8.75,0,*63
1530371127.65,44539,18.63,73202.8,-0.33,-12.21,-14.55,0,*6A
1530371128.92,44540,18.63,73190.8,-0.33,-12.35,-10.41,0,*60
1530371130.11,44541,18.63,73212.8,-0.33,-8.29,-7.11,0,*64
1530371131.36,44542,18.63,73204.5,-0.35,-6.89,-5.93,0,*6D
1530371132.57,44543,18.63,73166.8,-0.35,-6.47,-5.39,0,*6E
1530371133.8,44544,18.63,73140.5,-0.35,-4.77,-4.33,0,*63
1530371134.99,44545,18.63,73150.0,-0.37,-4.65,-4.29,0,*68
1530371136.2,44546,18.63,73190.3,-0.37,-4.69,-4.41,0,*69
1530371137.41,44547,18.63,73196.5,-0.35,-3.23,-3.07,0,*66
1530371138.65,44548,18.63,73202.8,-0.35,-3.71,-3.35,0,*6F
1530371139.87,44549,18.63,73192.3,-0.35,-3.31,-3.23,0,*6D
1530371141.08,44550,18.63,73208.3,-0.35,-4.09,-4.09,0,*66
1530371142.31,44551,18.63,73204.3,-0.35,-3.55,-3.23,0,*66
1530371143.51,44552,18.63,73204.0,-0.33,-3.19,-3.07,0,*6D
1530371144.75,44553,18.63,73230.0,-0.31,-2.67,-2.95,0,*6C
1530371145.99,44554,18.63,73196.3,-0.31,-3.43,-4.99,0,*66
1530371147.23,44555,18.63,73190.5,-0.31,-4.29,-4.81,0,*65
1530371148.47,44556,18.63,73184.3,-0.31,-5.97,-7.35,0,*6E
1530371149.71,44557,18.63,73198.3,-0.27,-6.23,-6.01,0,*62
1530371150.92,44558,18.63,73186.5,-0.27,-6.89,-7.15,0,*69
1530371152.16,44559,18.63,73198.0,-0.25,-5.77,-7.01,0,*6D
1530371153.39,44560,18.63,73186.5,-0.25,-5.93,-9.67,0,*63
1530371154.64,44561,18.63,73196.8,-0.17,-10.85,-15.01,0,*6D
1530371155.92,44562,18.63,73202.8,-0.13,-12.35,-17.17,0,*66
1530371157.18,44563,18.63,73180.0,-0.11,-16.09,-22.17,0,*68
1530371158.43,44564,18.63,73186.0,-0.07,-14.83,-17.41,0,*5D
1530371159.65,44565,18.63,73194.3,-0.05,-15.53,-21.77,0,*52
1530371160.84,44566,18.63,73180.0,0.01,-18.21,-21.09,0,*79
1530371162.06,44567,18.63,73170.0,0.05,-17.35,-21.23,0,*7E
1530371163.29,44568,18.63,73188.8,0.07,-15.43,-18.83,0,*70
1530371164.51,44569,18.63,73164.3,0.07,-15.25,-19.75,0,*79
1530371165.76,44570,18.63,73180.5,0.13,-11.59,-12.21,0,*41
1530371167.03,44571,18.63,73190.5,0.13,-7.95,-11.51,0,*73
1530371168.26,44572,18.63,73158.0,0.17,-9.61,-13.55,0,*77
1530371169.47,44573,18.63,73198.0,0.21,-10.89,-13.07,0,*4A
1530371170.73,44574,18.63,73142.8,0.21,-11.23,-12.71,0,*4C
1530371171.94,44575,18.63,73132.8,0.23,-9.67,-12.75,0,*72
1530371173.15,44576,18.63,73186.0,0.27,-9.83,-10.53,0,*79
1530371174.38,44577,18.63,73168.5,0.31,-7.99,-9.57,0,*46
1530371175.6,44578,18.63,73196.8,0.31,-8.63,-11.67,0,*79
1530371176.84,44579,18.63,73192.5,0.33,-16.17,-20.73,0,*41
1530371178.04,44580,18.63,73198.8,0.35,-20.59,-18.99,0,*41
1530371179.31,44581,18.63,73196.3,0.37,-16.13,-11.81,0,*49
1530371180.54,44582,18.63,73198.3,0.39,-12.57,-8.03,0,*72
1530371181.72,44583,18.63,73190.5,0.39,-10.31,-6.69,0,*73
1530371182.95,44584,18.63,73184.3,0.35,-7.39,-5.69,0,*45
1530371184.17,44585,18.63,73176.8,0.35,-5.47,-4.81,0,*48
1530371185.34,44586,18.63,73180.5,0.31,-4.99,-4.61,0,*43
1530371186.55,44587,18.63,73170.5,0.31,-3.91,-3.67,0,*4C
1530371187.81,44588,18.63,73180.3,0.29,-3.67,-3.59,0,*4E
1530371189.04,44589,18.63,73184.5,0.27,-3.59,-3.43,0,*47
1530371190.25,44590,18.63,73192.0,0.27,-4.25,-3.71,0,*42
1530371191.43,44591,18.63,73190.3,0.23,-4.13,-3.79,0,*4A
1530371192.62,44592,18.63,73192.0,0.23,-4.29,-4.05,0,*4C
1530371193.8,44593,18.63,73194.0,0.23,-4.13,-3.87,0,*49
1530371194.98,44594,18.63,73194.0,0.19,-4.17,-3.95,0,*40
1530371196.18,44595,18.63,73194.5,0.19,-4.21,-4.05,0,*4A
1530371197.39,44596,18.63,73190.3,0.19,-3.75,-3.51,0,*49
1530371198.64,44597,18.63,73174.8,0.17,-3.47,-3.55,0,*43
1530371199.87,44598,18.63,73164.3,0.15,-3.55,-3.67,0,*4C
1530371201.09,44599,18.63,73188.3,0.17,-3.23,-3.67,0,*4E
1530371202.28,44600,18.63,73174.5,0.15,-3.79,-4.13,0,*44
1530371203.5,44601,18.63,73204.0,0.17,-4.21,-4.37,0,*4B
1530371204.73,44602,18.63,73234.3,0.17,-6.05,-7.77,0,*4B
1530371205.94,44603,18.63,73192.3,0.15,-14.75,-13.43,0,*4E
1530371207.17,44604,18.63,73220.8,0.15,-13.97,-14.15,0,*46
1530371208.41,44605,18.63,73204.3,0.11,-19.51,-16.51,0,*41
1530371209.63,44606,18.63,73196.5,0.11,-9.83,-8.59,0,*4B
1530371210.86,44607,18.63,73178.5,0.11,-10.53,-9.57,0,*70
1530371212.09,44608,18.63,73174.8,0.11,-9.67,-9.53,0,*44
1530371213.36,44609,18.63,73198.5,0.11,-11.37,-11.07,0,*41
1530371214.6,44610,18.63,73198.5,0.11,-16.27,-9.71,0,*77
1530371215.84,44611,18.63,73186.0,0.11,-11.45,-5.31,0,*7D
1530371217.08,44612,18.63,73138.3,0.13,-5.55,-4.01,0,*4A
1530371218.33,44613,18.63,73188.5,0.13,-5.03,-4.37,0,*4D
1530371219.59,44614,18.63,73158.8,0.17,-5.93,-4.73,0,*47
1530371220.85,44615,18.63,73202.5,0.17,-5.77,-4.85,0,*45
1530371222.08,44616,18.63,73200.3,0.17,-4.65,-5.89,0,*49
1530371223.32,44617,18.63,73200.3,0.19,-7.95,-12.07,0,*7A
1530371224.51,44618,18.56,73210.5,0.19,-15.11,-12.21,0,*4E
1530371225.75,44619,18.63,73188.8,0.21,-8.97,-6.23,0,*41
1530371227.0,44620,18.63,73186.8,0.21,-6.27,-7.35,0,*48
1530371228.21,44621,18.63,73194.3,0.23,-6.59,-7.31,0,*46
1530371229.45,44622,18.63,73198.8,0.27,-8.03,-9.37,0,*48
1530371230.63,44623,18.63,73210.8,0.27,-7.23,-8.41,0,*44
1530371231.85,44624,18.63,73202.8,0.31,-8.41,-11.29,0,*79
1530371233.08,44625,18.63,73210.5,0.33,-8.67,-9.49,0,*41
1530371234.29,44626,18.63,73214.8,0.37,-9.27,-10.23,0,*77
1530371235.47,44627,18.63,73184.0,0.39,-7.83,-8.75,0,*42
1530371236.69,44628,18.63,73224.8,0.39,-8.85,-11.63,0,*7B
1530371237.88,44629,18.63,73216.0,0.43,-13.55,-15.15,0,*45
1530371239.15,44630,18.63,73218.5,0.41,-16.17,-15.39,0,*42
1530371240.38,44631,18.63,73208.0,0.43,-14.55,-10.15,0,*4E
1530371241.61,44632,18.63,73224.3,0.41,-10.63,-6.89,0,*7C
1530371242.84,44633,18.63,73218.8,0.41,-8.03,-7.11,0,*42
1530371244.04,44634,18.63,73214.8,0.41,-8.59,-7.87,0,*45
1530371245.25,44635,18.63,73216.3,0.41,-7.19,-6.13,0,*43
1530371246.45,44636,18.63,73212.5,0.39,-5.11,-3.83,0,*49
1530371247.63,44637,18.63,73198.0,0.39,-4.53,-4.13,0,*41
1530371248.83,44638,18.63,73206.3,0.37,-3.35,-3.11,0,*42
1530371250.06,44639,18.63,73190.0,0.37,-2.59,-2.39,0,*43
1530371251.29,44640,18.63,73214.0,0.37,-2.63,-2.39,0,*44
1530371252.5,44641,18.63,73202.0,0.39,-2.15,-2.11,0,*40
1530371253.75,44642,18.63,73168.3,0.37,-1.95,-1.83,0,*4E
1530371255.01,44643,18.63,73186.0,0.37,-2.03,-1.95,0,*44
1530371256.19,44644,18.63,73182.0,0.39,-1.71,-1.79,0,*49
1530371257.4,44645,18.63,73192.5,0.39,-2.35,-2.71,0,*40
1530371258.61,44646,18.63,73190.0,0.39,-3.43,-4.21,0,*40
1530371259.84,44647,18.63,73190.5,0.41,-4.05,-4.93,0,*42
1530371261.09,44648,18.63,73192.0,0.41,-4.81,-5.65,0,*49
1530371262.32,44649,18.63,73186.0,0.41,-6.93,-8.97,0,*49
1530371263.55,44650,18.63,73176.8,0.37,-12.47,-13.37,0,*4C
1530371264.8,44651,18.63,73180.0,0.33,-12.43,-12.79,0,*46
1530371266.0,44652,18.63,73184.3,0.31,-9.61,-9.05,0,*4C
1530371267.22,44653,18.63,73190.3,0.27,-8.85,-7.91,0,*42
1530371268.42,44654,18.63,73188.0,0.23,-7.39,-6.05,0,*45
1530371269.62,44655,18.63,73180.5,0.21,-6.39,-6.01,0,*43
1530371270.88,44656,18.63,73180.5,0.17,-5.23,-4.89,0,*4F
1530371272.07,44657,18.63,73176.5,0.15,-4.57,-4.49,0,*42
1530371273.26,44658,18.63,73192.0,0.15,-4.37,-4.37,0,*42
1530371274.46,44659,18.63,73202.0,0.11,-4.17,-4.17,0,*47
1530371275.69,44660,18.63,73186.8,0.11,-3.91,-4.01,0,*43
1530371276.91,44661,18.63,73186.5,0.11,-3.83,-3.75,0,*45
1530371278.13,44662,18.63,73194.0,0.09,-3.51,-3.51,0,*76
1530371279.38,44663,18.63,73184.5,0.07,-3.55,-3.63,0,*7C
1530371280.57,44664,18.63,73188.3,0.09,-3.91,-3.91,0,*70
1530371281.81,44665,18.63,73190.3,0.07,-3.67,-3.67,0,*7F
1530371283.03,44666,18.63,73166.5,0.07,-3.75,-3.79,0,*70
1530371284.23,44667,18.63,73172.5,0.07,-4.05,-4.05,0,*7D
1530371285.41,44668,18.63,73184.3,0.05,-3.95,-3.95,0,*70
1530371286.64,44669,18.63,73190.8,0.01,-4.81,-4.93,0,*76
1530371287.84,44670,18.63,73192.5,-0.01,-4.41,-4.49,0,*58
1530371289.03,44671,18.63,73182.5,-0.03,-4.57,-4.57,0,*53
1530371290.21,44672,18.63,73188.3,-0.03,-4.05,-4.05,0,*50
1530371291.48,44673,18.63,73188.5,-0.05,-4.01,-4.01,0,*57
1530371292.71,44674,18.63,73184.3,-0.07,-3.67,-3.59,0,*5F
1530371293.94,44675,18.63,73186.5,-0.07,-3.59,-3.55,0,*5F
1530371295.17,44676,18.63,73212.8,-0.07,-3.59,-3.71,0,*5A
1530371296.42,44677,18.63,73222.8,-0.07,-5.03,-5.23,0,*53
1530371297.63,44678,18.63,73212.5,-0.11,-6.85,-6.97,0,*6A
1530371298.83,44679,18.63,73216.8,-0.15,-6.63,-6.69,0,*66
1530371300.02,44680,18.63,73216.3,-0.21,-6.43,-6.55,0,*6A
1530371301.27,44681,18.63,73206.3,-0.25,-5.27,-5.27,0,*68
1530371302.46,44682,18.63,73204.8,-0.25,-4.53,-4.53,0,*6B
1530371303.7,44683,18.63,73220.8,-0.27,-4.65,-4.77,0,*6B
1530371304.89,44684,18.63,73210.0,-0.29,-4.41,-4.45,0,*65
1530371306.08,44685,18.56,73216.3,-0.29,-4.29,-4.29,0,*60